DLH401 KJFK-EDDF

Flight info

Callsign DLH401
Flight time N/A
Altitude 37000
Route MERIT DCT HFD DCT PUT DCT WITCH DCT ALLEX N565B TUDEP/M081F380 DCT 52N050W 53N040W 54N030W 55N020W DCT RESNO DCT NETKI/N0465F390 DCT MORAG DCT NUCHU L607 KONAN DCT KOK UL607 FERDI DCT SPI T180 NIVNU T847 IMCOM IMCOM1A
Aircraft A346/H-SDE2E3FGHIJ3J4J5M1RWXY/LB1D1

Departure

Time 2026-05-06 10:24
Airport John F. Kennedy International Airport (KJFK)

Arrival

Time N/A
Airport Frankfurt Main Airport (EDDF)
Time Latitude Longitude Altitude Speed Heading
2026-05-06 09:52 40.64167 -73.79152 33 ft 0 kts 307°
2026-05-06 10:06 40.64162 -73.79145 33 ft 4 kts 307°
2026-05-06 10:07 40.64146 -73.79116 31 ft 4 kts 307°
2026-05-06 10:07 40.64134 -73.79095 31 ft 4 kts 297°
2026-05-06 10:07 40.64130 -73.79074 33 ft 4 kts 257°
2026-05-06 10:07 40.64134 -73.79061 32 ft 0 kts 238°
2026-05-06 10:08 40.64120 -73.79082 33 ft 4 kts 220°
2026-05-06 10:08 40.64099 -73.79105 33 ft 4 kts 223°
2026-05-06 10:08 40.64084 -73.79124 33 ft 4 kts 224°
2026-05-06 10:08 40.64065 -73.79149 33 ft 4 kts 224°
2026-05-06 10:09 40.64045 -73.79174 33 ft 4 kts 224°
2026-05-06 10:09 40.64036 -73.79186 33 ft 0 kts 224°
2026-05-06 10:12 40.64034 -73.79188 33 ft 1 kts 224°
2026-05-06 10:12 40.64021 -73.79205 32 ft 5 kts 224°
2026-05-06 10:13 40.63989 -73.79248 30 ft 6 kts 240°
2026-05-06 10:13 40.63995 -73.79326 30 ft 10 kts 294°
2026-05-06 10:13 40.64028 -73.79409 31 ft 11 kts 298°
2026-05-06 10:13 40.64084 -73.79488 31 ft 13 kts 332°
2026-05-06 10:14 40.64175 -73.79505 33 ft 13 kts
2026-05-06 10:14 40.64273 -73.79498 33 ft 15 kts
2026-05-06 10:14 40.64382 -73.79491 33 ft 16 kts 360°
2026-05-06 10:14 40.64502 -73.79502 32 ft 18 kts 355°
2026-05-06 10:15 40.64606 -73.79534 32 ft 16 kts 333°
2026-05-06 10:15 40.64702 -73.79619 32 ft 17 kts 324°
2026-05-06 10:15 40.64814 -73.79701 32 ft 20 kts 349°
2026-05-06 10:15 40.64942 -73.79704 32 ft 12 kts
2026-05-06 10:16 40.65031 -73.79677 32 ft 14 kts 31°
2026-05-06 10:16 40.65094 -73.79571 32 ft 16 kts 60°
2026-05-06 10:16 40.65150 -73.79441 32 ft 17 kts 60°
2026-05-06 10:16 40.65203 -73.79308 32 ft 16 kts 73°
2026-05-06 10:17 40.65194 -73.79163 32 ft 17 kts 106°
2026-05-06 10:17 40.65158 -73.79007 32 ft 19 kts 108°
2026-05-06 10:17 40.65138 -73.78847 32 ft 19 kts 89°
2026-05-06 10:17 40.65179 -73.78675 32 ft 21 kts 61°
2026-05-06 10:18 40.65244 -73.78520 32 ft 19 kts 61°
2026-05-06 10:18 40.65256 -73.78366 33 ft 18 kts 112°
2026-05-06 10:18 40.65192 -73.78214 33 ft 20 kts 121°
2026-05-06 10:18 40.65112 -73.78041 31 ft 23 kts 121°
2026-05-06 10:19 40.65025 -73.77848 28 ft 26 kts 121°
2026-05-06 10:19 40.64931 -73.77643 29 ft 26 kts 121°
2026-05-06 10:19 40.64838 -73.77435 30 ft 23 kts 121°
2026-05-06 10:19 40.64785 -73.77317 32 ft 12 kts 121°
2026-05-06 10:20 40.64755 -73.77232 31 ft 11 kts 92°
2026-05-06 10:20 40.64790 -73.77137 31 ft 13 kts 54°
2026-05-06 10:20 40.64850 -73.77025 27 ft 18 kts 54°
2026-05-06 10:20 40.64924 -73.76891 29 ft 16 kts 54°
2026-05-06 10:21 40.64972 -73.76804 29 ft 9 kts 54°
2026-05-06 10:21 40.64978 -73.76722 29 ft 11 kts 113°
2026-05-06 10:21 40.64968 -73.76645 29 ft 9 kts 65°
2026-05-06 10:21 40.65024 -73.76586 29 ft 11 kts 31°
2026-05-06 10:22 40.65083 -73.76535 30 ft 8 kts 44°
2026-05-06 10:22 40.65089 -73.76461 30 ft 9 kts 110°
2026-05-06 10:22 40.65066 -73.76400 31 ft 7 kts 123°
2026-05-06 10:22 40.65028 -73.76371 31 ft 7 kts 178°
2026-05-06 10:23 40.64973 -73.76395 31 ft 10 kts 211°
2026-05-06 10:23 40.64961 -73.76404 31 ft 0 kts 211°
2026-05-06 10:23 40.64814 -73.76519 30 ft 55 kts 210°
2026-05-06 10:24 40.64312 -73.76910 30 ft 111 kts 211°
2026-05-06 10:24 40.63503 -73.77542 32 ft 158 kts 211°
2026-05-06 10:24 40.62493 -73.78348 322 ft 175 kts 210°
2026-05-06 10:24 40.61432 -73.79189 964 ft 174 kts 210°
2026-05-06 10:25 40.60407 -73.79972 1752 ft 168 kts 214°
2026-05-06 10:25 40.59419 -73.80715 2263 ft 172 kts 214°
2026-05-06 10:25 40.58641 -73.81486 2620 ft 176 kts 231°
2026-05-06 10:25 40.58214 -73.82677 2907 ft 190 kts 255°
2026-05-06 10:26 40.58277 -73.84136 3142 ft 214 kts 280°
2026-05-06 10:26 40.58903 -73.85649 3392 ft 242 kts 301°
2026-05-06 10:26 40.59872 -73.87052 3777 ft 255 kts 306°
2026-05-06 10:26 40.60955 -73.88487 4248 ft 262 kts 307°
2026-05-06 10:27 40.62303 -73.90143 4897 ft 274 kts 317°
2026-05-06 10:27 40.64149 -73.91028 5544 ft 297 kts 353°
2026-05-06 10:27 40.66191 -73.90475 6328 ft 307 kts 27°
2026-05-06 10:27 40.67920 -73.88818 7064 ft 310 kts 42°
2026-05-06 10:28 40.69514 -73.86854 7667 ft 318 kts 44°
2026-05-06 10:28 40.71160 -73.84834 8338 ft 324 kts 43°
2026-05-06 10:28 40.72863 -73.82853 9044 ft 329 kts 41°
2026-05-06 10:28 40.74631 -73.80893 9737 ft 334 kts 39°
2026-05-06 10:29 40.76446 -73.78942 10372 ft 340 kts 39°
2026-05-06 10:29 40.78329 -73.76949 10778 ft 355 kts 38°
2026-05-06 10:29 40.80315 -73.74864 11072 ft 373 kts 38°
2026-05-06 10:29 40.82394 -73.72690 11381 ft 390 kts 38°
2026-05-06 10:30 40.84566 -73.70416 11696 ft 407 kts 38°
2026-05-06 10:30 40.86828 -73.68046 11994 ft 423 kts 38°
2026-05-06 10:30 40.89128 -73.65634 12490 ft 432 kts 38°
2026-05-06 10:30 40.91492 -73.63158 13188 ft 435 kts 38°
2026-05-06 10:31 40.93101 -73.61472 13688 ft 438 kts 38°
2026-05-06 10:31 40.96279 -73.58133 14534 ft 442 kts 37°
2026-05-06 10:31 40.98697 -73.55588 15189 ft 445 kts 37°
2026-05-06 10:31 41.01121 -73.53035 15859 ft 447 kts 37°
2026-05-06 10:32 41.03563 -73.50461 16515 ft 450 kts 37°
2026-05-06 10:32 41.05225 -73.48708 16949 ft 452 kts 37°
2026-05-06 10:32 41.07664 -73.46135 17591 ft 455 kts 36°
2026-05-06 10:32 41.10149 -73.43511 18224 ft 458 kts 36°
2026-05-06 10:33 41.12646 -73.40872 18776 ft 461 kts 36°
2026-05-06 10:33 41.15162 -73.38208 19313 ft 464 kts 36°
2026-05-06 10:33 41.17690 -73.35530 19842 ft 466 kts 36°
2026-05-06 10:33 41.20236 -73.32832 20390 ft 470 kts 36°
2026-05-06 10:34 41.22801 -73.30110 20872 ft 474 kts 35°
2026-05-06 10:34 41.25387 -73.27365 21376 ft 477 kts 35°
2026-05-06 10:34 41.27991 -73.24597 21889 ft 480 kts 35°
2026-05-06 10:34 41.30607 -73.21812 22381 ft 484 kts 35°
2026-05-06 10:35 41.33242 -73.19002 22876 ft 487 kts 35°
2026-05-06 10:35 41.35852 -73.16105 23371 ft 492 kts 39°
2026-05-06 10:35 41.38241 -73.12799 23809 ft 499 kts 47°
2026-05-06 10:35 41.40338 -73.09043 24238 ft 504 kts 55°
2026-05-06 10:36 41.42175 -73.05036 24662 ft 508 kts 57°
2026-05-06 10:36 41.43952 -73.00948 25051 ft 511 kts 58°
2026-05-06 10:36 41.45726 -72.96826 25441 ft 514 kts 58°
2026-05-06 10:36 41.47521 -72.92679 25832 ft 517 kts 58°
2026-05-06 10:37 41.49332 -72.88528 26231 ft 519 kts 58°
2026-05-06 10:37 41.51157 -72.84353 26633 ft 522 kts 58°
2026-05-06 10:37 41.52992 -72.80164 27013 ft 524 kts 58°
2026-05-06 10:37 41.54841 -72.75942 27405 ft 527 kts 58°
2026-05-06 10:38 41.56698 -72.71704 27775 ft 529 kts 58°
2026-05-06 10:38 41.58556 -72.67456 28271 ft 528 kts 58°
2026-05-06 10:38 41.60406 -72.63220 28872 ft 526 kts 58°
2026-05-06 10:38 41.62243 -72.59005 29456 ft 524 kts 58°
2026-05-06 10:39 41.64075 -72.54796 29990 ft 523 kts 58°
2026-05-06 10:39 41.65934 -72.50605 30444 ft 522 kts 57°
2026-05-06 10:39 41.67807 -72.46459 30919 ft 520 kts 57°
2026-05-06 10:39 41.69683 -72.42319 31399 ft 519 kts 57°
2026-05-06 10:40 41.71550 -72.38191 31878 ft 517 kts 57°
2026-05-06 10:40 41.73407 -72.34070 32351 ft 515 kts 57°
2026-05-06 10:40 41.75255 -72.29959 32811 ft 514 kts 57°
2026-05-06 10:40 41.77092 -72.25863 33263 ft 512 kts 57°
2026-05-06 10:41 41.78923 -72.21765 33702 ft 511 kts 56°
2026-05-06 10:41 41.80746 -72.17684 34043 ft 511 kts 56°
2026-05-06 10:41 41.82574 -72.13591 34392 ft 510 kts 56°
2026-05-06 10:41 41.84401 -72.09502 34714 ft 510 kts 56°
2026-05-06 10:42 41.86220 -72.05417 35035 ft 509 kts 56°
2026-05-06 10:42 41.88033 -72.01337 35332 ft 509 kts 56°
2026-05-06 10:42 41.89847 -71.97252 35581 ft 510 kts 55°
2026-05-06 10:42 41.91670 -71.93143 35797 ft 511 kts 54°
2026-05-06 10:43 41.93577 -71.89114 35989 ft 510 kts 51°
2026-05-06 10:43 41.95647 -71.85247 36202 ft 509 kts 47°
2026-05-06 10:43 41.97883 -71.81570 36460 ft 506 kts 43°
2026-05-06 10:44 42.02730 -71.74843 36826 ft 504 kts 38°
2026-05-06 10:44 42.07829 -71.68243 36927 ft 505 kts 38°
2026-05-06 10:45 42.12885 -71.61663 36928 ft 505 kts 38°
2026-05-06 10:45 42.17891 -71.55102 36922 ft 506 kts 38°
2026-05-06 10:46 42.22918 -71.48483 36917 ft 505 kts 38°
2026-05-06 10:46 42.27943 -71.41844 36913 ft 505 kts 38°
2026-05-06 10:47 42.32964 -71.35198 36923 ft 505 kts 39°
2026-05-06 10:47 42.37978 -71.28545 36907 ft 505 kts 39°
2026-05-06 10:48 42.42992 -71.21876 36918 ft 505 kts 39°
2026-05-06 10:48 42.48001 -71.15200 36924 ft 506 kts 39°
2026-05-06 10:49 42.53015 -71.08500 36904 ft 506 kts 39°
2026-05-06 10:49 42.58031 -71.01784 36917 ft 506 kts 39°
2026-05-06 10:50 42.63037 -70.95062 36920 ft 506 kts 39°
2026-05-06 10:50 42.67853 -70.88026 36901 ft 511 kts 45°
2026-05-06 10:51 42.72073 -70.80193 36896 ft 515 kts 52°
2026-05-06 10:51 42.75953 -70.71992 36900 ft 516 kts 53°
2026-05-06 10:52 42.79819 -70.63751 36906 ft 516 kts 53°
2026-05-06 10:52 42.83691 -70.55527 36900 ft 516 kts 53°
2026-05-06 10:53 42.87555 -70.47326 36887 ft 512 kts 53°
2026-05-06 10:53 42.91368 -70.39205 36929 ft 512 kts 53°
2026-05-06 10:54 42.95198 -70.31028 36911 ft 514 kts 53°
2026-05-06 10:54 42.99045 -70.22799 36903 ft 514 kts 53°
2026-05-06 10:55 43.02870 -70.14595 36902 ft 508 kts 53°
2026-05-06 10:55 43.06648 -70.06459 36915 ft 505 kts 53°
2026-05-06 10:56 43.10415 -69.98332 36912 ft 505 kts 53°
2026-05-06 10:56 43.14174 -69.90200 36923 ft 505 kts 53°
2026-05-06 10:57 43.17918 -69.82073 36919 ft 503 kts 53°
2026-05-06 10:57 43.21634 -69.74000 36925 ft 506 kts 54°
2026-05-06 10:58 43.25387 -69.65812 36926 ft 507 kts 54°
2026-05-06 10:58 43.29134 -69.57610 36926 ft 507 kts 54°
2026-05-06 10:59 43.32877 -69.49397 36939 ft 507 kts 54°
2026-05-06 10:59 43.36611 -69.41183 36934 ft 506 kts 54°
2026-05-06 11:00 43.40337 -69.32960 36932 ft 506 kts 54°
2026-05-06 11:00 43.44038 -69.24774 36935 ft 501 kts 54°
2026-05-06 11:01 43.47714 -69.16618 36954 ft 501 kts 54°
2026-05-06 11:01 43.51388 -69.08446 36947 ft 501 kts 54°
2026-05-06 11:02 43.55048 -69.00277 36943 ft 501 kts 54°
2026-05-06 11:02 43.58704 -68.92097 36941 ft 501 kts 55°
2026-05-06 11:03 43.62364 -68.83886 36954 ft 502 kts 55°
2026-05-06 11:03 43.66017 -68.75666 36953 ft 502 kts 55°
2026-05-06 11:04 43.69660 -68.67437 36949 ft 500 kts 54°
2026-05-06 11:04 43.73281 -68.59244 36977 ft 499 kts 55°
2026-05-06 11:05 43.76910 -68.51018 36952 ft 501 kts 55°
2026-05-06 11:05 43.80531 -68.42778 36952 ft 501 kts 55°
2026-05-06 11:06 43.84148 -68.34524 36960 ft 501 kts 55°
2026-05-06 11:06 43.87758 -68.26262 36968 ft 501 kts 55°
2026-05-06 11:07 43.91373 -68.17966 36961 ft 502 kts 55°
2026-05-06 11:07 43.94981 -68.09663 36959 ft 502 kts 56°
2026-05-06 11:08 43.98590 -68.01332 36966 ft 502 kts 56°
2026-05-06 11:08 44.02160 -67.93066 36969 ft 503 kts 56°
2026-05-06 11:09 44.05759 -67.84708 36970 ft 503 kts 56°
2026-05-06 11:09 44.09349 -67.76347 36972 ft 503 kts 56°
2026-05-06 11:10 44.12959 -67.67917 36972 ft 503 kts 56°
2026-05-06 11:10 44.16524 -67.59568 36982 ft 505 kts 56°
2026-05-06 11:11 44.20105 -67.51155 36978 ft 505 kts 56°
2026-05-06 11:11 44.23693 -67.42712 36971 ft 505 kts 57°
2026-05-06 11:12 44.27264 -67.34266 37002 ft 505 kts 57°
2026-05-06 11:12 44.30842 -67.25790 36985 ft 507 kts 57°
2026-05-06 11:13 44.34415 -67.17295 36983 ft 507 kts 57°
2026-05-06 11:13 44.37986 -67.08780 36986 ft 507 kts 57°
2026-05-06 11:14 44.41732 -67.00435 36984 ft 505 kts 52°
2026-05-06 11:14 44.46058 -66.92777 36983 ft 502 kts 46°
2026-05-06 11:15 44.50657 -66.85398 36985 ft 502 kts 45°
2026-05-06 11:15 44.55253 -66.78038 36986 ft 502 kts 46°
2026-05-06 11:16 44.59842 -66.70629 36983 ft 503 kts 46°
2026-05-06 11:16 44.64418 -66.63196 36978 ft 503 kts 46°
2026-05-06 11:17 44.68981 -66.55763 36974 ft 503 kts 46°
2026-05-06 11:17 44.72781 -66.49564 36974 ft 503 kts 47°
2026-05-06 11:18 44.77353 -66.42083 36981 ft 504 kts 47°
2026-05-06 11:18 44.81909 -66.34606 36978 ft 504 kts 47°
2026-05-06 11:19 44.86471 -66.27101 36994 ft 504 kts 47°
2026-05-06 11:19 44.91028 -66.19589 36983 ft 505 kts 47°
2026-05-06 11:20 44.96352 -66.10779 36998 ft 505 kts 47°
2026-05-06 11:20 45.00135 -66.04502 37005 ft 505 kts 47°
2026-05-06 11:21 45.04681 -65.96947 37003 ft 506 kts 47°
2026-05-06 11:21 45.09231 -65.89360 36999 ft 507 kts 47°
2026-05-06 11:22 45.13778 -65.81758 36990 ft 507 kts 47°
2026-05-06 11:22 45.18324 -65.74141 36990 ft 507 kts 48°
2026-05-06 11:23 45.22867 -65.66506 36988 ft 508 kts 48°
2026-05-06 11:23 45.27417 -65.58836 36996 ft 508 kts 48°
2026-05-06 11:24 45.31944 -65.51184 37003 ft 508 kts 48°
2026-05-06 11:24 45.36481 -65.43499 36989 ft 508 kts 48°
2026-05-06 11:25 45.41018 -65.35789 36997 ft 508 kts 48°
2026-05-06 11:25 45.45548 -65.28069 36997 ft 508 kts 48°
2026-05-06 11:26 45.50078 -65.20333 36989 ft 509 kts 49°
2026-05-06 11:26 45.54608 -65.12570 36990 ft 509 kts 49°
2026-05-06 11:27 45.59136 -65.04790 36990 ft 509 kts 49°
2026-05-06 11:27 45.63628 -64.97055 36984 ft 510 kts 49°
2026-05-06 11:28 45.68156 -64.89233 36982 ft 512 kts 49°
2026-05-06 11:28 45.72690 -64.81375 36977 ft 512 kts 49°
2026-05-06 11:29 45.77207 -64.73524 36974 ft 512 kts 49°
2026-05-06 11:29 45.81743 -64.65622 36975 ft 514 kts 49°
2026-05-06 11:30 45.86275 -64.57703 36962 ft 514 kts 49°
2026-05-06 11:30 45.90811 -64.49755 36952 ft 514 kts 50°
2026-05-06 11:31 45.95338 -64.41800 36960 ft 514 kts 50°
2026-05-06 11:31 45.99853 -64.33845 36953 ft 514 kts 50°
2026-05-06 11:32 46.04352 -64.25894 36952 ft 514 kts 50°
2026-05-06 11:32 46.08852 -64.17920 36967 ft 514 kts 50°
2026-05-06 11:33 46.13358 -64.09911 36955 ft 515 kts 50°
2026-05-06 11:33 46.17853 -64.01891 36948 ft 515 kts 50°
2026-05-06 11:34 46.22345 -63.93863 36949 ft 515 kts 50°
2026-05-06 11:34 46.26848 -63.85792 36959 ft 516 kts 50°
2026-05-06 11:35 46.31337 -63.77721 36956 ft 516 kts 50°
2026-05-06 11:35 46.35837 -63.69608 36955 ft 517 kts 50°
2026-05-06 11:36 46.40323 -63.61497 36963 ft 517 kts 50°
2026-05-06 11:36 46.44815 -63.53351 36952 ft 517 kts 50°
2026-05-06 11:37 46.49308 -63.45175 36951 ft 517 kts 50°
2026-05-06 11:37 46.53772 -63.37028 36957 ft 517 kts 50°
2026-05-06 11:38 46.58258 -63.28821 36963 ft 518 kts 50°
2026-05-06 11:38 46.62697 -63.20674 36956 ft 519 kts 50°
2026-05-06 11:39 46.67141 -63.12492 36955 ft 519 kts 50°
2026-05-06 11:39 46.71605 -63.04246 36963 ft 517 kts 50°
2026-05-06 11:40 46.76029 -62.96056 36960 ft 517 kts 50°
2026-05-06 11:40 46.80452 -62.87843 36960 ft 517 kts 50°
2026-05-06 11:41 46.84875 -62.79604 36959 ft 517 kts 51°
2026-05-06 11:41 46.89310 -62.71321 36967 ft 518 kts 51°
2026-05-06 11:42 46.93739 -62.63020 36966 ft 518 kts 51°
2026-05-06 11:42 46.98172 -62.54687 36972 ft 518 kts 51°
2026-05-06 11:43 47.02585 -62.46366 36978 ft 518 kts 51°
2026-05-06 11:43 47.07000 -62.38017 36970 ft 518 kts 51°
2026-05-06 11:44 47.13621 -62.25449 36977 ft 518 kts 51°
2026-05-06 11:44 47.17994 -62.17116 36985 ft 519 kts 51°
2026-05-06 11:45 47.22396 -62.08702 36976 ft 519 kts 51°
2026-05-06 11:45 47.26785 -62.00291 36960 ft 516 kts 51°
2026-05-06 11:46 47.31136 -61.91923 36969 ft 514 kts 51°
2026-05-06 11:46 47.35478 -61.83550 36961 ft 514 kts 52°
2026-05-06 11:47 47.39815 -61.75157 36959 ft 514 kts 52°
2026-05-06 11:47 47.44155 -61.66733 36959 ft 514 kts 52°
2026-05-06 11:48 47.48483 -61.58307 36959 ft 514 kts 52°
2026-05-06 11:48 47.52773 -61.49931 36960 ft 514 kts 52°
2026-05-06 11:49 47.57121 -61.41414 36966 ft 514 kts 52°
2026-05-06 11:49 47.61403 -61.33002 36969 ft 514 kts 52°
2026-05-06 11:50 47.65711 -61.24515 36977 ft 515 kts 52°
2026-05-06 11:50 47.70018 -61.16000 36966 ft 516 kts 52°
2026-05-06 11:51 47.74325 -61.07457 36966 ft 516 kts 52°
2026-05-06 11:51 47.78618 -60.98916 36966 ft 516 kts 52°
2026-05-06 11:52 47.82904 -60.90371 36967 ft 513 kts 53°
2026-05-06 11:52 47.87161 -60.81845 36969 ft 512 kts 53°
2026-05-06 11:53 47.91405 -60.73321 36962 ft 512 kts 53°
2026-05-06 11:53 47.95651 -60.64765 36970 ft 513 kts 53°
2026-05-06 11:54 47.99901 -60.56177 36966 ft 515 kts 53°
2026-05-06 11:54 48.04153 -60.47558 36969 ft 515 kts 53°
2026-05-06 11:55 48.08392 -60.38937 36958 ft 515 kts 53°
2026-05-06 11:55 48.12632 -60.30288 36962 ft 516 kts 53°
2026-05-06 11:56 48.16838 -60.21681 36978 ft 516 kts 53°
2026-05-06 11:56 48.21074 -60.12984 36963 ft 516 kts 53°
2026-05-06 11:57 48.25302 -60.04278 36981 ft 516 kts 53°
2026-05-06 11:57 48.29519 -59.95564 36997 ft 515 kts 53°
2026-05-06 11:58 48.33730 -59.86836 36983 ft 515 kts 53°
2026-05-06 11:58 48.37925 -59.78113 36985 ft 513 kts 54°
2026-05-06 11:59 48.42095 -59.69412 36994 ft 513 kts 54°
2026-05-06 11:59 48.46260 -59.60695 36991 ft 513 kts 54°
2026-05-06 12:00 48.50421 -59.51956 36991 ft 513 kts 54°
2026-05-06 12:00 48.54580 -59.43195 36990 ft 513 kts 54°
2026-05-06 12:01 48.58736 -59.34415 36987 ft 513 kts 54°
2026-05-06 12:01 48.62878 -59.25633 36989 ft 513 kts 54°
2026-05-06 12:02 48.67013 -59.16835 36996 ft 513 kts 54°
2026-05-06 12:02 48.71116 -59.08079 37000 ft 513 kts 54°
2026-05-06 12:03 48.75242 -58.99247 36988 ft 514 kts 54°
2026-05-06 12:03 48.79370 -58.90380 37006 ft 514 kts 55°
2026-05-06 12:04 48.83493 -58.81491 36998 ft 514 kts 55°
2026-05-06 12:04 48.87597 -58.72617 36997 ft 514 kts 55°
2026-05-06 12:05 48.91694 -58.63734 36991 ft 512 kts 55°
2026-05-06 12:05 48.95775 -58.54847 36993 ft 512 kts 55°
2026-05-06 12:06 48.99848 -58.45952 36990 ft 511 kts 55°
2026-05-06 12:06 49.03907 -58.37057 36990 ft 511 kts 55°
2026-05-06 12:07 49.07281 -58.29640 36983 ft 511 kts 55°
2026-05-06 12:07 49.11334 -58.20705 36988 ft 511 kts 56°
2026-05-06 12:08 49.15378 -58.11761 36987 ft 511 kts 56°
2026-05-06 12:08 49.19416 -58.02798 36984 ft 512 kts 56°
2026-05-06 12:09 49.23454 -57.93806 36980 ft 512 kts 56°
2026-05-06 12:09 49.27485 -57.84800 36979 ft 512 kts 56°
2026-05-06 12:10 49.31508 -57.75781 36977 ft 512 kts 56°
2026-05-06 12:10 49.35529 -57.66734 36978 ft 513 kts 56°
2026-05-06 12:11 49.39551 -57.57657 36978 ft 514 kts 56°
2026-05-06 12:11 49.43562 -57.48575 36946 ft 513 kts 56°
2026-05-06 12:12 49.47551 -57.39508 36961 ft 511 kts 56°
2026-05-06 12:12 49.51529 -57.30433 36957 ft 511 kts 56°
2026-05-06 12:13 49.55503 -57.21343 36964 ft 511 kts 56°
2026-05-06 12:13 49.59469 -57.12240 36963 ft 511 kts 56°
2026-05-06 12:14 49.63426 -57.03122 36981 ft 511 kts 56°
2026-05-06 12:14 49.67383 -56.93973 36959 ft 512 kts 56°
2026-05-06 12:15 49.71331 -56.84817 36956 ft 512 kts 56°
2026-05-06 12:15 49.75279 -56.75628 36958 ft 512 kts 56°
2026-05-06 12:16 49.79193 -56.66485 36955 ft 513 kts 56°
2026-05-06 12:16 49.83132 -56.57250 36954 ft 514 kts 56°
2026-05-06 12:17 49.87066 -56.47996 36950 ft 514 kts 56°
2026-05-06 12:17 49.90988 -56.38741 36951 ft 514 kts 56°
2026-05-06 12:18 49.94894 -56.29488 36950 ft 515 kts 56°
2026-05-06 12:18 49.98806 -56.20182 36927 ft 514 kts 56°
2026-05-06 12:19 50.02710 -56.10871 36949 ft 513 kts 56°
2026-05-06 12:19 50.06594 -56.01578 36948 ft 513 kts 56°
2026-05-06 12:20 50.10477 -55.92247 36945 ft 514 kts 56°
2026-05-06 12:20 50.14343 -55.82927 36941 ft 515 kts 56°
2026-05-06 12:21 50.18193 -55.73614 36936 ft 515 kts 56°
2026-05-06 12:21 50.22055 -55.64240 36936 ft 515 kts 56°
2026-05-06 12:22 50.25903 -55.54856 36942 ft 516 kts 56°
2026-05-06 12:22 50.29560 -55.45915 36936 ft 516 kts 56°
2026-05-06 12:23 50.33347 -55.36624 36933 ft 516 kts 56°
2026-05-06 12:23 50.37129 -55.27314 36931 ft 516 kts 56°
2026-05-06 12:24 50.40908 -55.17966 36950 ft 517 kts 56°
2026-05-06 12:24 50.44737 -55.08470 36938 ft 517 kts 56°
2026-05-06 12:25 50.48559 -54.98961 36937 ft 517 kts 56°
2026-05-06 12:25 50.52364 -54.89456 36939 ft 517 kts 56°
2026-05-06 12:26 50.56173 -54.79905 36936 ft 517 kts 57°
2026-05-06 12:26 50.59972 -54.70344 36933 ft 517 kts 57°
2026-05-06 12:27 50.63776 -54.60734 36944 ft 517 kts 57°
2026-05-06 12:27 50.67568 -54.51119 36944 ft 517 kts 57°
2026-05-06 12:28 50.71333 -54.41525 36948 ft 517 kts 56°
2026-05-06 12:28 50.75092 -54.31931 36945 ft 517 kts 57°
2026-05-06 12:29 50.78836 -54.22337 36944 ft 517 kts 57°
2026-05-06 12:29 50.82566 -54.12740 36950 ft 517 kts 57°
2026-05-06 12:30 50.86320 -54.03036 36952 ft 516 kts 57°
2026-05-06 12:30 50.90051 -53.93368 36950 ft 516 kts 57°
2026-05-06 12:31 50.93660 -53.83982 36948 ft 516 kts 57°
2026-05-06 12:31 50.97374 -53.74283 36947 ft 516 kts 57°
2026-05-06 12:32 51.01041 -53.64664 36951 ft 517 kts 57°
2026-05-06 12:32 51.04758 -53.54877 36941 ft 515 kts 56°
2026-05-06 12:33 51.08427 -53.45198 36948 ft 514 kts 56°
2026-05-06 12:33 51.12085 -53.35507 36950 ft 514 kts 57°
2026-05-06 12:34 51.15700 -53.25798 36948 ft 514 kts 58°
2026-05-06 12:34 51.18846 -53.15575 37136 ft 523 kts 64°
2026-05-06 12:35 51.20319 -53.10218 37539 ft 520 kts 65°
2026-05-06 12:35 51.21734 -53.05003 37933 ft 518 kts 65°
2026-05-06 12:35 51.24580 -52.94501 37954 ft 517 kts 65°
2026-05-06 12:36 51.27427 -52.84006 37954 ft 515 kts 65°
2026-05-06 12:36 51.30257 -52.73564 37948 ft 514 kts 65°
2026-05-06 12:37 51.33087 -52.63086 37960 ft 514 kts 65°
2026-05-06 12:37 51.35904 -52.52608 37958 ft 514 kts 65°
2026-05-06 12:38 51.38709 -52.42114 37947 ft 511 kts 65°
2026-05-06 12:38 51.41476 -52.31716 37957 ft 507 kts 65°
2026-05-06 12:39 51.44227 -52.21347 37959 ft 506 kts 65°
2026-05-06 12:39 51.46952 -52.11030 37959 ft 506 kts 65°
2026-05-06 12:40 51.49683 -52.00634 37959 ft 506 kts 65°
2026-05-06 12:40 51.52400 -51.90253 37968 ft 503 kts 65°
2026-05-06 12:41 51.55092 -51.79906 37972 ft 503 kts 65°
2026-05-06 12:41 51.57781 -51.69530 37972 ft 503 kts 65°